Regional Weather Roundup
Issued by NWS

Home | Current Version | Previous Version | Text Only | Print | Product List | Glossary Off
Versions: 1 2 3 4 5 6 7 8 9 10 11 12 13 14 15 16 17 18 19 20 21 22 23 24 25 26 27 28 29 30 31 32 33 34 35 36 37 38 39 40 41 42 43 44 45 46 47 48 49 50

000
ASUS43 KFSD 291502
RWRSD

WEATHER ROUNDUP FOR SOUTH DAKOTA
NATIONAL WEATHER SERVICE SIOUX FALLS SD
1000 AM CDT SAT APR 29 2017

NOTE: "FAIR" INDICATES FEW OR NO CLOUDS BELOW 12,000 FEET WITH NO
SIGNIFICANT WEATHER AND/OR OBSTRUCTIONS TO VISIBILITY.


SDZ001>005-009-010-012>017-291600-
NORTHWEST AND NORTH CENTRAL SOUTH DAKOTA

CITY           SKY/WX    TMP DP  RH WIND       PRES   REMARKS
BUFFALO          N/A     42  29  59 S3        30.23R
FAITH            N/A     46  27  47 N5        30.29R
MOBRIDGE       SUNNY     48  26  42 CALM      30.29R
$$

SDZ012>016-024>037-041>051-057-063-072>074-291600-
SOUTHWEST AND SOUTH CENTRAL SOUTH DAKOTA

CITY           SKY/WX    TMP DP  RH WIND       PRES   REMARKS
RAPID CTY ARPT CLOUDY    43  24  47 N6        30.29S
PIERRE         PTSUNNY   46  23  40 NE6       30.28F
CUSTER         CLOUDY    33  11  39 NE8       30.25R WCI  26
ELLSWORTH AFB  CLOUDY    41  25  51 N7        30.29R
PHILIP         SUNNY     48  26  42 VRB5      30.28F
PINE RIDGE     CLOUDY    39  29  67 SW3       30.28S
SPEARFISH      FAIR      41  23  48 CALM      30.30R
WINNER         FAIR      45  24  43 NE9       30.27F
$$

SDZ004>011-016>023-039-040-291600-
NORTHEAST SOUTH DAKOTA

CITY           SKY/WX    TMP DP  RH WIND       PRES   REMARKS
ABERDEEN       SUNNY     47  21  35 SE8       30.34R
WATERTOWN      MOSUNNY   43  21  41 E8        30.30F
BROOKINGS      CLOUDY    44  21  40 E18       30.28F
SISSETON         N/A     46  24  42 S10       30.33F
$$

SDZ017-020-022-023-036>040-048>070-291600-
SOUTHEAST SOUTH DAKOTA

CITY           SKY/WX    TMP DP  RH WIND       PRES   REMARKS
SIOUX FALLS    CLOUDY    46  30  53 E12       30.25F
HURON          MOSUNNY   47  26  44 E8        30.30F
CHAMBERLAIN    MOSUNNY   48  23  36 NE10G16   30.27F
MITCHELL       CLOUDY    45  27  49 NE12      30.27F
YANKTON        PTSUNNY   45  28  53 NE16      30.20F
$$

ABBREVIATIONS USED IN REMARKS
   TC - TEMPERATURE IN CELSIUS
  WCI - WIND CHILL INDEX
   HX - HEAT INDEX
  VSB - VISIBILITY




USA.gov is the U.S. government's official web portal to all federal, state and local government web resources and services.